ランキン彗星

C/2020 K6 ( Rankin )

English version
Home page
Updated on September 18, 2021

---------------------------------------------------------------------

・ プロフィール

発見日 2020年5月26日
発見光度 20.5等
発見者 David Rankin (Mount Lemmon Survey)

・ 写真集

・ 軌道要素

Epoch 2021 Sept. 23.0 TT = JDT 2459480.5
T 2021 Sept. 15.45872 TT                                Rudenko
q   5.8683435            (2000.0)            P               Q
z  -0.0005188      Peri.   44.29609     +0.10938564     -0.41329924
 +/-0.0000028      Node   291.52616     -0.93628675     +0.26254062
e   1.0030448      Incl.  103.64327     +0.33376924     +0.87192669
From 93 observations 2020 May 26-2021 Sept. 1, mean residual 0".5.

・ 光度変化

        m1 = 8.0 + 5 logΔ + 10.0 log r

---------------------------------------------------------------------

軌道要素はM.P.E.C. 2021-R75に掲載されたものです。
光度グラフはComet for Windowsで作成したものです。

---------------------------------------------------------------------

Copyright(C) Seiichi Yoshida (comet@aerith.net). All rights reserved.